LiveATC.Net - Listen to live air traffic control over the Internet!


ICAO: UUDD  IATA: DME   Airport: Domodedovo International Airport
City: Moscow
Country: Russia   Continent: Europe
UUDD METAR Weather: UUDD 282100Z 16003MPS 9999 SCT032 11/06 Q1026 R14R/CLRD60 NOSIG
UUDD Flight Activity (FlightAware)

UUDD Twr/App
Feed Status: DOWN
Last heard on: 2020-07-26 02:31:06 (64 days 19 hours 9 minutes ago)
Archive Access: UUDD Twr/App
FacilityFrequency
Domodedovo Tower118.600
Moscow Approach125.300
Moscow Approach127.700

NOTICE

Unauthorized use prohibited. See LiveATC.net Terms of Service


Airport/ARTCC Code
Frequency Search
(e.g., 124.400, 128.75)
Site-wide search
 


Browse Feeds
Top 50 Feeds
Coverage Map
Bad Weather Areas

LiveATC FAQ
Offer LiveATC feed
Contact LiveATC.net
Press Inquiries

LiveATC on iPhone
LiveATC on Android

Windows Phone
Windows 8/10

LiveATC Mobile
(Mobile browser)

ATC Audio Archives
Interesting Recordings

LiveATC Forums


Home Page
About LiveATC.net
Make a Donation
Terms of Use
Privacy Policy

Canadian Air Freqs

AIRMETs/SIGMETs

FAA Airport Status
Nat'l Airspace Status
Arrival Demand Charts


Server Software By:
Icecast.org
Liquidsoap